User: anonymous   Login
Location: Newark
(44.3248°N, 23.7839°E)
Time: 19:15:46
(UTC+00:00)
Language:

NOAA 19 - Orbit

View from above orbital plane
View from above orbital plane
View from above satellite
View from above satellite

Ground track
Ground track

The orbit data is extracted from the following two-line orbital elements,

1 33591U 09005A   24113.43172825  .00000642  00000-0  36864-3 0  9990
2 33591  99.0521 168.6300 0014902  90.4121 269.8758 14.12977102783755
Epoch (UTC): 22 April 2024 10:21:41
Eccentricity: 0.0014902
inclination: 99.0521°
perigee height: 838 km
apogee height: 860 km
right ascension of ascending node: 168.6300°
argument of perigee: 90.4121°
revolutions per day: 14.12977102
mean anomaly at epoch: 269.8758°
orbit number at epoch: 78375

The dashed part of the orbit path shows where the satellite is in the earth's shadow,  

DLR